Location: Mountain Grove
(34.0887°N, 86.6172°W)
Time: 00:12:26
(UTC+00:00)

Cosmos 2082 Rocket - Pass Details

Date: 14 July 2020
Orbit: 834 x 853 km, 71.0° (Epoch: 12 August)

Event Time Altitude Azimuth Distance (km) Brightness Sun altitude
Exits shadow 09:10:10 16° 272° (W) 2,056 3.8 -17.1°
Maximum altitude 09:12:24 20° 302° (WNW) 1,853 3.8 -16.8°
Drops below altitude 10° 09:16:34 10° 349° (N) 2,484 5.0 -16.2°
Sets 09:19:42 0° 6° (N) 3,421 6.1 -15.7°
